| time (UTC) | temp F | wind direction | speed knots | gust knots | rain 1hr in | rain 24hr in | rain mn in | humidity % | barometer mb |
| 20260504023245 | 50 | 150 | 4.3 | 7.0 | 0.00 | 0.00 | 0.00 | 66 | 1010.2 |
| 20260504022741 | 50 | 157 | 4.3 | 7.0 | 0.00 | 0.00 | 0.00 | 66 | 1010.3 |
| 20260504022238 | 50 | 132 | 4.3 | 8.7 | 0.00 | 0.00 | 0.00 | 67 | 1010.2 |
| 20260504021735 | 50 | 149 | 4.3 | 6.1 | 0.00 | 0.00 | 0.00 | 68 | 1010.1 |
| 20260504021232 | 50 | 145 | 5.2 | 5.2 | 0.00 | 0.00 | 0.00 | 67 | 1010.2 |
| 20260504020729 | 50 | 142 | 6.1 | 6.1 | 0.00 | 0.00 | 0.00 | 67 | 1010.1 |
| 20260504020225 | 50 | 140 | 2.6 | 5.2 | 0.00 | 0.00 | 0.00 | 67 | 1010.0 |
| 20260504015722 | 50 | 149 | 3.5 | 5.2 | 0.00 | 0.00 | 0.00 | 67 | 1010.1 |
| 20260504015218 | 50 | 152 | 7.8 | 8.7 | 0.00 | 0.00 | 0.00 | 67 | 1010.2 |
| 20260504014714 | 50 | 155 | 4.3 | 5.2 | 0.00 | 0.00 | 0.00 | 67 | 1010.3 |
| 20260504014211 | 50 | 160 | 3.5 | 4.3 | 0.00 | 0.00 | 0.00 | 67 | 1010.4 |
| 20260504013709 | 50 | 192 | 3.5 | 4.3 | 0.00 | 0.00 | 0.00 | 67 | 1010.4 |
| 20260504013206 | 50 | 176 | 1.7 | 3.5 | 0.00 | 0.00 | 0.00 | 68 | 1010.3 |
| 20260504012702 | 50 | 163 | 2.6 | 2.6 | 0.00 | 0.00 | 0.00 | 67 | 1010.2 |
| 20260504012200 | 50 | 160 | 5.2 | 6.1 | 0.00 | 0.00 | 0.00 | 67 | 1010.2 |
| 20260504011657 | 50 | 181 | 2.6 | 5.2 | 0.00 | 0.00 | 0.00 | 67 | 1010.3 |
| 20260504011153 | 50 | 153 | 3.5 | 5.2 | 0.00 | 0.00 | 0.00 | 67 | 1010.1 |
| 20260504010649 | 50 | 163 | 5.2 | 5.2 | 0.00 | 0.00 | 0.00 | 66 | 1010.1 |
| 20260504010145 | 50 | 169 | 3.5 | 7.0 | 0.00 | 0.00 | 0.00 | 67 | 1010.1 |
| 20260504005643 | 50 | 149 | 4.3 | 6.1 | 0.00 | 0.00 | 0.00 | 66 | 1010.1 |
| 20260504005139 | 51 | 154 | 3.5 | 5.2 | 0.00 | 0.00 | 0.00 | 66 | 1010.1 |
| 20260504004637 | 51 | 165 | 4.3 | 5.2 | 0.00 | 0.00 | 0.00 | 65 | 1010.1 |
| 20260504004134 | 51 | 160 | 3.5 | 5.2 | 0.00 | 0.00 | 0.00 | 64 | 1010.2 |
| 20260504003630 | 51 | 162 | 2.6 | 5.2 | 0.00 | 0.00 | 0.00 | 64 | 1010.0 |
| 20260504003127 | 51 | 159 | 2.6 | 3.5 | 0.00 | 0.00 | 0.00 | 63 | 1010.0 |
| 20260504002624 | 51 | 153 | 3.5 | 3.5 | 0.00 | 0.00 | 0.00 | 62 | 1009.9 |
| 20260504002121 | 51 | 133 | 3.5 | 5.2 | 0.00 | 0.00 | 0.00 | 62 | 1009.9 |
| 20260504001619 | 51 | 157 | 3.5 | 4.3 | 0.00 | 0.00 | 0.00 | 63 | 1010.0 |
| 20260504001115 | 51 | 144 | 1.7 | 3.5 | 0.00 | 0.00 | 0.00 | 62 | 1010.2 |
| 20260504000613 | 51 | 143 | 1.7 | 3.5 | 0.00 | 0.00 | 0.00 | 62 | 1010.4 |
| 20260504000110 | 51 | 158 | 3.5 | 4.3 | 0.00 | 0.00 | 0.00 | 61 | 1010.5 |
| 20260503235608 | 51 | 158 | 4.3 | 4.3 | 0.00 | 0.00 | 0.00 | 61 | 1010.6 |
| 20260503235104 | 51 | 165 | 2.6 | 5.2 | 0.00 | 0.00 | 0.00 | 60 | 1011.0 |
| 20260503234602 | 51 | 191 | 7.0 | 8.7 | 0.00 | 0.00 | 0.00 | 61 | 1011.0 |
| 20260503234100 | 52 | 221 | 5.2 | 11.3 | 0.00 | 0.00 | 0.00 | 60 | 1011.0 |
| 20260503233556 | 52 | 190 | 3.5 | 13.9 | 0.00 | 0.00 | 0.00 | 60 | 1010.9 |
| 20260503233052 | 52 | 214 | 9.6 | 13.0 | 0.00 | 0.00 | 0.00 | 57 | 1011.0 |
| 20260503232549 | 53 | 220 | 4.3 | 10.4 | 0.00 | 0.00 | 0.00 | 56 | 1010.7 |
| 20260503232047 | 53 | 230 | 3.5 | 15.6 | 0.00 | 0.00 | 0.00 | 54 | 1010.8 |
| 20260503231545 | 53 | 240 | 5.2 | 13.0 | 0.00 | 0.00 | 0.00 | 53 | 1010.9 |
| 20260503231041 | 54 | 232 | 8.7 | 14.8 | 0.00 | 0.00 | 0.00 | 51 | 1010.6 |
| 20260503230538 | 54 | 223 | 3.5 | 12.2 | 0.00 | 0.00 | 0.00 | 50 | 1010.9 |
| 20260503230035 | 55 | 235 | 4.3 | 15.6 | 0.00 | 0.00 | 0.00 | 48 | 1011.0 |
| 20260503225532 | 56 | 236 | 4.3 | 20.9 | 0.00 | 0.00 | 0.00 | 45 | 1010.7 |
| 20260503225027 | 57 | 273 | 4.3 | 11.3 | 0.00 | 0.00 | 0.00 | 43 | 1010.7 |
| 20260503224525 | 58 | 217 | 9.6 | 16.5 | 0.00 | 0.00 | 0.00 | 38 | 1010.6 |
| 20260503224023 | 58 | 245 | 7.8 | 8.7 | 0.00 | 0.00 | 0.00 | 36 | 1010.6 |
| 20260503223520 | 59 | 238 | 2.6 | 15.6 | 0.00 | 0.00 | 0.00 | 36 | 1010.4 |
| 20260503223015 | 59 | 179 | 2.6 | 7.0 | 0.00 | 0.00 | 0.00 | 36 | 1010.4 |
| 20260503222514 | 59 | 209 | 3.5 | 9.6 | 0.00 | 0.00 | 0.00 | 35 | 1010.6 |
| 20260503222012 | 59 | 182 | 7.0 | 10.4 | 0.00 | 0.00 | 0.00 | 35 | 1010.5 |
| 20260503221510 | 59 | 245 | 7.8 | 9.6 | 0.00 | 0.00 | 0.00 | 36 | 1010.5 |
| 20260503221007 | 59 | 189 | 5.2 | 7.0 | 0.00 | 0.00 | 0.00 | 36 | 1010.5 |
| 20260503220503 | 59 | 176 | 5.2 | 10.4 | 0.00 | 0.00 | 0.00 | 35 | 1010.6 |
| 20260503220000 | 60 | 193 | 6.1 | 14.8 | 0.00 | 0.00 | 0.00 | 34 | 1010.6 |
| 20260503215457 | 59 | 207 | 6.1 | 7.8 | 0.00 | 0.00 | 0.00 | 34 | 1010.6 |
| 20260503214954 | 59 | 210 | 7.8 | 13.0 | 0.00 | 0.00 | 0.00 | 33 | 1010.6 |
| 20260503214452 | 60 | 182 | 5.2 | 13.0 | 0.00 | 0.00 | 0.00 | 34 | 1010.6 |
| 20260503213949 | 60 | 259 | 10.4 | 16.5 | 0.00 | 0.00 | 0.00 | 33 | 1010.6 |
| 20260503213447 | 60 | 225 | 7.0 | 13.0 | 0.00 | 0.00 | 0.00 | 34 | 1010.7 |
| 20260503212943 | 60 | 253 | 4.3 | 9.6 | 0.00 | 0.00 | 0.00 | 34 | 1010.6 |
| 20260503212441 | 60 | 188 | 4.3 | 9.6 | 0.00 | 0.00 | 0.00 | 35 | 1010.8 |
| 20260503211938 | 60 | 186 | 6.1 | 9.6 | 0.00 | 0.00 | 0.00 | 35 | 1010.7 |
| 20260503211435 | 60 | 222 | 5.2 | 10.4 | 0.00 | 0.00 | 0.00 | 34 | 1010.7 |
| 20260503210930 | 60 | 212 | 6.1 | 13.0 | 0.00 | 0.00 | 0.00 | 36 | 1010.9 |
| 20260503210427 | 60 | 239 | 5.2 | 9.6 | 0.00 | 0.00 | 0.00 | 35 | 1010.8 |
| 20260503205922 | 61 | 216 | 8.7 | 14.8 | 0.00 | 0.00 | 0.00 | 33 | 1010.9 |
| 20260503205420 | 60 | 223 | 5.2 | 10.4 | 0.00 | 0.00 | 0.00 | 34 | 1010.9 |
| 20260503204915 | 61 | 252 | 1.7 | 7.8 | 0.00 | 0.00 | 0.00 | 36 | 1011.2 |
| 20260503204413 | 61 | 168 | 8.7 | 9.6 | 0.00 | 0.00 | 0.00 | 35 | 1011.0 |
| 20260503203910 | 60 | 203 | 3.5 | 7.8 | 0.00 | 0.00 | 0.00 | 33 | 1011.1 |
| 20260503203408 | 61 | 196 | 6.1 | 12.2 | 0.00 | 0.00 | 0.00 | 33 | 1011.3 |
| 20260503202904 | 60 | 223 | 3.5 | 13.9 | 0.00 | 0.00 | 0.00 | 35 | 1011.4 |
| 20260503202403 | 60 | 257 | 5.2 | 10.4 | 0.00 | 0.00 | 0.00 | 33 | 1011.3 |
| 20260503201900 | 61 | 245 | 10.4 | 10.4 | 0.00 | 0.00 | 0.00 | 32 | 1011.3 |
| 20260503201357 | 61 | 197 | 4.3 | 10.4 | 0.00 | 0.00 | 0.00 | 32 | 1011.4 |
| 20260503200855 | 60 | 187 | 6.1 | 9.6 | 0.00 | 0.00 | 0.00 | 33 | 1011.3 |
| 20260503200350 | 60 | 220 | 3.5 | 12.2 | 0.00 | 0.00 | 0.00 | 34 | 1011.4 |
| 20260503195848 | 61 | 233 | 5.2 | 13.0 | 0.00 | 0.00 | 0.00 | 33 | 1011.7 |
| 20260503195344 | 61 | 219 | 7.8 | 12.2 | 0.00 | 0.00 | 0.00 | 32 | 1011.7 |
| 20260503194842 | 60 | 231 | 5.2 | 13.0 | 0.00 | 0.00 | 0.00 | 33 | 1011.6 |
| 20260503194337 | 61 | 183 | 4.3 | 10.4 | 0.00 | 0.00 | 0.00 | 34 | 1011.6 |
| 20260503193834 | 62 | 272 | 5.2 | 11.3 | 0.00 | 0.00 | 0.00 | 32 | 1011.8 |
| 20260503193330 | 62 | 245 | 2.6 | 10.4 | 0.00 | 0.00 | 0.00 | 35 | 1011.9 |
| 20260503192826 | 61 | 230 | 3.5 | 7.8 | 0.00 | 0.00 | 0.00 | 34 | 1011.9 |
| 20260503192321 | 61 | 240 | 4.3 | 11.3 | 0.00 | 0.00 | 0.00 | 35 | 1012.1 |
| 20260503191818 | 60 | 190 | 3.5 | 10.4 | 0.00 | 0.00 | 0.00 | 33 | 1012.2 |
| 20260503191315 | 61 | 215 | 6.1 | 13.9 | 0.00 | 0.00 | 0.00 | 32 | 1012.1 |
| 20260503190812 | 60 | 244 | 3.5 | 9.6 | 0.00 | 0.00 | 0.00 | 38 | 1012.4 |
| 20260503190309 | 59 | 205 | 3.5 | 7.8 | 0.00 | 0.00 | 0.00 | 35 | 1012.4 |
| 20260503185806 | 60 | 184 | 7.0 | 10.4 | 0.00 | 0.00 | 0.00 | 34 | 1012.4 |
| 20260503185302 | 60 | 190 | 4.3 | 10.4 | 0.00 | 0.00 | 0.00 | 34 | 1012.5 |
| 20260503184801 | 60 | 211 | 4.3 | 5.2 | 0.00 | 0.00 | 0.00 | 37 | 1012.6 |
| 20260503184258 | 60 | 272 | 3.5 | 10.4 | 0.00 | 0.00 | 0.00 | 34 | 1012.8 |
| 20260503183754 | 60 | 185 | 7.0 | 12.2 | 0.00 | 0.00 | 0.00 | 36 | 1012.8 |
| 20260503183252 | 59 | 223 | 1.7 | 7.0 | 0.00 | 0.00 | 0.00 | 36 | 1012.8 |
| 20260503182749 | 59 | 214 | 5.2 | 7.0 | 0.00 | 0.00 | 0.00 | 37 | 1012.9 |
| 20260503182248 | 60 | 214 | 6.1 | 11.3 | 0.00 | 0.00 | 0.00 | 34 | 1013.0 |
| 20260503181744 | 59 | 192 | 3.5 | 7.8 | 0.00 | 0.00 | 0.00 | 35 | 1012.9 |
| 20260503181241 | 59 | 304 | 4.3 | 9.6 | 0.00 | 0.00 | 0.00 | 35 | 1013.2 |
| 20260503180738 | 59 | 232 | 7.8 | 9.6 | 0.00 | 0.00 | 0.00 | 34 | 1013.1 |
| 20260503180236 | 60 | 236 | 3.5 | 8.7 | 0.00 | 0.00 | 0.00 | 35 | 1013.3 |
| 20260503175732 | 59 | 224 | 6.1 | 11.3 | 0.00 | 0.00 | 0.00 | 33 | 1013.2 |
| 20260503175230 | 60 | 226 | 3.5 | 7.8 | 0.00 | 0.00 | 0.00 | 35 | 1013.3 |
| 20260503174726 | 59 | 149 | 2.6 | 6.1 | 0.00 | 0.00 | 0.00 | 37 | 1013.6 |
| 20260503174225 | 59 | 184 | 7.0 | 15.6 | 0.00 | 0.00 | 0.00 | 34 | 1013.4 |
| 20260503173725 | 59 | 239 | 5.2 | 9.6 | 0.00 | 0.00 | 0.00 | 33 | 1013.5 |
| 20260503173221 | 59 | 264 | 6.1 | 7.8 | 0.00 | 0.00 | 0.00 | 36 | 1013.5 |
| 20260503172718 | 59 | 233 | 2.6 | 11.3 | 0.00 | 0.00 | 0.00 | 35 | 1013.7 |
| 20260503172215 | 58 | 208 | 3.5 | 11.3 | 0.00 | 0.00 | 0.00 | 34 | 1013.7 |
| 20260503171711 | 59 | 217 | 2.6 | 10.4 | 0.00 | 0.00 | 0.00 | 34 | 1013.8 |
| 20260503171209 | 60 | 199 | 5.2 | 7.8 | 0.00 | 0.00 | 0.00 | 34 | 1013.9 |
| 20260503170705 | 60 | 223 | 7.8 | 11.3 | 0.00 | 0.00 | 0.00 | 34 | 1014.0 |
| 20260503170202 | 59 | 193 | 7.0 | 9.6 | 0.00 | 0.00 | 0.00 | 34 | 1013.8 |
| 20260503160124 | 58 | 284 | 3.5 | 7.8 | 0.00 | 0.00 | 0.00 | 38 | 1014.5 |
| 20260503150554 | 55 | 220 | 3.5 | 7.8 | 0.00 | 0.00 | 0.00 | 40 | 1014.7 |
| 20260503130943 | 48 | 170 | 2.6 | 5.2 | 0.00 | 0.00 | 0.00 | 52 | 1015.2 |
| 20260503130441 | 48 | 203 | 4.3 | 4.3 | 0.00 | 0.00 | 0.00 | 55 | 1015.5 |
| 20260503110338 | 31 | 134 | 2.6 | 2.6 | 0.00 | 0.00 | 0.00 | 93 | 1014.6 |
| 20260503090229 | 31 | 143 | 1.7 | 2.6 | 0.00 | 0.00 | 0.00 | 90 | 1014.0 |
| 20260503081202 | 33 | 126 | 1.7 | 1.7 | 0.00 | 0.00 | 0.00 | 88 | 1014.2 |
| 20260503080657 | 32 | 146 | 1.7 | 2.6 | 0.00 | 0.00 | 0.00 | 88 | 1014.0 |
| 20260503080155 | 32 | 136 | 1.7 | 2.6 | 0.00 | 0.00 | 0.00 | 87 | 1014.0 |
| 20260503072631 | 33 | 145 | 1.7 | 1.7 | 0.00 | 0.00 | 0.00 | 89 | 1014.1 |
| 20260503072128 | 33 | 115 | 1.7 | 1.7 | 0.00 | 0.00 | 0.00 | 90 | 1014.1 |
| 20260503071625 | 33 | 139 | 1.7 | 1.7 | 0.00 | 0.00 | 0.00 | 91 | 1013.9 |
| 20260503071122 | 33 | 136 | 1.7 | 2.6 | 0.00 | 0.00 | 0.00 | 91 | 1014.2 |
| 20260503070619 | 32 | 133 | 1.7 | 1.7 | 0.00 | 0.00 | 0.00 | 91 | 1014.0 |
| 20260503070117 | 32 | 139 | 1.7 | 2.6 | 0.00 | 0.00 | 0.00 | 91 | 1014.1 |
| 20260503055037 | 33 | 122 | 1.7 | 2.6 | 0.00 | 0.00 | 0.00 | 89 | 1014.4 |
| 20260503054533 | 33 | 128 | 1.7 | 2.6 | 0.00 | 0.00 | 0.00 | 88 | 1014.3 |
| 20260503054031 | 34 | 130 | 2.6 | 2.6 | 0.00 | 0.00 | 0.00 | 89 | 1014.3 |
| 20260503053529 | 34 | 139 | 1.7 | 1.7 | 0.00 | 0.00 | 0.00 | 89 | 1014.3 |
| 20260503053026 | 34 | 140 | 1.7 | 1.7 | 0.00 | 0.00 | 0.00 | 89 | 1014.3 |
| 20260503052523 | 34 | 142 | 1.7 | 1.7 | 0.00 | 0.00 | 0.00 | 89 | 1014.5 |
| 20260503052019 | 34 | 141 | 1.7 | 2.6 | 0.00 | 0.00 | 0.00 | 88 | 1014.4 |
| 20260503051515 | 34 | 140 | 1.7 | 1.7 | 0.00 | 0.00 | 0.00 | 88 | 1014.3 |
| 20260503051013 | 34 | 141 | 1.7 | 2.6 | 0.00 | 0.00 | 0.00 | 88 | 1014.5 |
| 20260503050508 | 35 | 135 | 1.7 | 2.6 | 0.00 | 0.00 | 0.00 | 87 | 1014.4 |
| 20260503050006 | 35 | 135 | 1.7 | 1.7 | 0.00 | 0.00 | 0.00 | 87 | 1014.6 |
| 20260503045503 | 35 | 144 | 1.7 | 1.7 | 0.00 | 0.00 | 0.00 | 86 | 1014.3 |
| 20260503045000 | 35 | 135 | 2.6 | 2.6 | 0.00 | 0.00 | 0.00 | 86 | 1014.4 |
| 20260503044456 | 36 | 144 | 1.7 | 2.6 | 0.00 | 0.00 | 0.00 | 85 | 1014.4 |
| 20260503043954 | 36 | 128 | 1.7 | 1.7 | 0.00 | 0.00 | 0.00 | 84 | 1014.4 |
| 20260503043450 | 37 | 147 | 1.7 | 1.7 | 0.00 | 0.00 | 0.00 | 84 | 1014.3 |
| 20260503042947 | 37 | 151 | 1.7 | 2.6 | 0.00 | 0.00 | 0.00 | 84 | 1014.2 |
| 20260503042443 | 37 | 141 | 1.7 | 1.7 | 0.00 | 0.00 | 0.00 | 83 | 1014.4 |
| 20260503041940 | 37 | 122 | 1.7 | 2.6 | 0.00 | 0.00 | 0.00 | 83 | 1014.3 |
| 20260503041437 | 37 | 150 | 1.7 | 2.6 | 0.00 | 0.00 | 0.00 | 83 | 1014.3 |
| 20260503040934 | 37 | 137 | 1.7 | 2.6 | 0.00 | 0.00 | 0.00 | 81 | 1014.3 |
| 20260503040431 | 38 | 128 | 1.7 | 2.6 | 0.00 | 0.00 | 0.00 | 81 | 1014.4 |
| 20260503035929 | 38 | 146 | 1.7 | 2.6 | 0.00 | 0.00 | 0.00 | 81 | 1014.5 |
| 20260503035425 | 38 | 143 | 1.7 | 2.6 | 0.00 | 0.00 | 0.00 | 80 | 1014.3 |
| 20260503034923 | 38 | 148 | 1.7 | 2.6 | 0.00 | 0.00 | 0.00 | 81 | 1014.4 |
| 20260503034421 | 38 | 140 | 2.6 | 2.6 | 0.00 | 0.00 | 0.00 | 80 | 1014.5 |
| 20260503033917 | 38 | 133 | 1.7 | 2.6 | 0.00 | 0.00 | 0.00 | 80 | 1014.5 |
| 20260503033415 | 38 | 144 | 1.7 | 2.6 | 0.00 | 0.00 | 0.00 | 80 | 1014.4 |
| 20260503032913 | 38 | 142 | 1.7 | 2.6 | 0.00 | 0.00 | 0.00 | 82 | 1014.5 |
| 20260503032411 | 38 | 136 | 1.7 | 2.6 | 0.00 | 0.00 | 0.00 | 84 | 1014.5 |
| 20260503031908 | 38 | 127 | 1.7 | 1.7 | 0.00 | 0.00 | 0.00 | 85 | 1014.5 |
| 20260503031406 | 37 | 142 | 1.7 | 2.6 | 0.00 | 0.00 | 0.00 | 84 | 1014.6 |
| 20260503030902 | 37 | 128 | 1.7 | 2.6 | 0.00 | 0.00 | 0.00 | 83 | 1014.6 |
| 20260503030359 | 37 | 143 | 1.7 | 2.6 | 0.00 | 0.00 | 0.00 | 83 | 1014.6 |
| 20260503025855 | 38 | 136 | 1.7 | 2.6 | 0.00 | 0.00 | 0.00 | 84 | 1014.6 |
| 20260503025353 | 37 | 128 | 1.7 | 1.7 | 0.00 | 0.00 | 0.00 | 83 | 1014.7 |
| 20260503024850 | 37 | 127 | 1.7 | 2.6 | 0.00 | 0.00 | 0.00 | 80 | 1014.7 |
| 20260503024346 | 37 | 134 | 2.6 | 2.6 | 0.00 | 0.00 | 0.00 | 79 | 1014.6 |
| 20260503023843 | 37 | 136 | 1.7 | 2.6 | 0.00 | 0.00 | 0.00 | 78 | 1014.7 |
| 20260503023341 | 38 | 138 | 1.7 | 2.6 | 0.00 | 0.00 | 0.00 | 78 | 1014.8 |